SCP
0 0 0 -0 -0 0 0 0 0 0 0 0 0 0 0 0 1 -0 -1 -1 -0 -2 -1 -0 0 0 0 0 0 0 0 0 0 0 0 0 0 0 0 0 0 0 0 0
0 0 0 -0 0 0 0 0 -0 0 0 0 0 0 0 1 1 0 -1 -1 0 -0 0 0 0 0 0 0 0 0 0 0 0 0 0 0 0 0 0 0 0 0 0 0
0 0 -0 -0 -0 0 0 0 0 0 0 0 0 0 0 1 1 1 1 1 0 1 1 0 0 0 0 0 0 0 0 0 0 0 0 0 0 0 0 0 0 0 0 0
0 0 0 -0 -0 0 0 0 -0 0 0 0 0 -0 0 0 2 1 1 1 0 -0 0 0 0 0 0 0 0 0 0 0 0 0 0 0 0 0 0 0 0 0 0 0
0 0 0 0 0 0 0 0 0 0 0 0 0 0 0 0 3 1 -0 1 1 1 1 0 0 0 0 0 0 0 0 0 0 0 0 0 0 0 0 0 0 0 0 0
0 0 0 0 0 0 0 0 0 0 1 0 1 0 0 0 1 1 2 2 2 1 0 0 0 0 0 0 0 0 0 0 0 0 0 0 0 0 0 0 0 0 0 0
0 0 0 0 0 0 0 0 0 0 2 1 1 1 1 1 4 3 3 2 1 0 0 0 0 0 0 0 0 0 0 0 0 0 0 0 0 0 0 0 0 0 0 0
0 0 0 0 0 0 0 0 0 0 0 1 0 0 0 2 3 3 2 1 1 0 0 0 0 0 0 0 0 0 0 0 0 0 0 0 0 0 0 0 0 0 0 0
0 0 0 0 0 0 -0 0 0 0 0 0 0 0 3 3 2 2 1 1 1 0 0 0 0 0 0 0 0 0 0 0 0 0 0 0 0 0 0 0 0 0 0 0
0 0 0 0 0 -0 -0 0 0 0 -0 0 1 1 2 3 2 1 1 1 0 0 0 0 0 0 0 0 0 0 0 0 0 0 0 0 0 0 0 0 0 0 0 0
0 0 0 0 0 0 0 -0 -0 -0 0 -0 0 0 1 0 0 1 1 0 -0 -0 0 -0 0 0 0 0 0 0 0 0 0 0 0 0 0 0 0 0 0 0 0 0
-0 -0 0 -0 0 0 0 0 0 -0 -0 0 0 0 0 1 1 1 0 0 0 0 0 0 0 0 0 0 0 0 0 0 0 0 0 0 0 -0 -0 -0 -0 0 0 0
0 0 -0 0 0 0 0 0 0 0 0 0 1 2 0 1 1 0 0 0 0 0 0 0 0 0 0 0 0 0 0 0 0 0 0 0 -0 -0 -0 -0 -0 -0 0 0
0 0 0 0 0 0 0 0 0 0 1 -0 0 1 2 3 1 0 0 0 0 -0 -0 -0 -0 0 0 0 0 0 0 0 0 0 0 0 -0 0 0 0 0 -0 0 0
0 0 0 0 0 0 0 0 0 0 0 0 0 0 3 1 0 0 0 0 -0 -0 -0 0 0 0 0 0 0 0 0 0 0 0 0 0 0 0 0 0 0 0 0 0
0 0 0 0 0 0 0 0 0 0 0 0 0 0 1 1 0 0 0 0 0 0 0 0 0 0 0 0 0 0 0 0 0 0 0 0 0 0 -0 0 0 0 0 0
0 0 0 0 0 0 0 0 0 0 0 0 0 0 0 0 -0 -0 0 0 -0 0 0 0 0 0 0 0 0 0 0 0 0 0 0 0 0 -0 -0 -0 0 0 0 0
0 0 0 0 0 0 0 0 0 0 0 0 0 0 -0 -0 -0 0 0 0 0 0 0 0 0 0 0 0 0 0 0 0 -0 -0 -0 -0 -0 -0 -0 0 0 0 0 0
0 0 -0 0 0 0 0 0 0 0 0 0 0 -0 -0 -0 0 0 0 0 0 0 0 0 0 0 0 0 0 0 0 0 0 -0 -0 -0 -0 0 0 0 0 0 0 0
-0 0 0 0 0 1 0 0 0 0 0 0 0 0 0 0 0 0 0 0 0 0 0 0 0 0 0 0 0 0 0 0 0 0 0 0 0 0 0 0 0 0 0 0
0 0 0 0 0 1 0 0 0 0 0 0 0 0 0 0 0 0 0 0 0 0 0 0 0 0 0 0 0 0 0 0 0 0 0 0 0 0 0 0 0 0 0 0
0 0 0 0 0 0 0 0 0 0 0 0 0 0 0 0 0 0 0 0 0 0 0 0 0 0 0 0 0 0 0 0 0 0 0 0 0 0 0 0 0 0 0 0
0 0 0 0 0 0 0 0 0 0 0 0 0 0 0 0 0 0 0 0 0 0 0 0 0 0 0 0 0 0 0 0 0 0 0 0 0 0 0 0 0 0 0 0
0 0 0 0 0 0 0 0 0 0 0 0 0 0 0 0 0 0 0 0 0 0 0 -0 -0 0 0 0 0 0 0 0 0 0 0 0 0 0 0 0 0 0 0 0
0 0 0 0 0 0 0 0 0 0 0 0 0 0 0 0 0 -0 0 0 0 0 -0 -0 -0 -0 0 0 0 0 0 0 0 0 0 0 0 0 0 0 0 0 0 0
0 0 0 0 0 0 0 0 0 0 0 0 0 0 0 0 0 0 0 0 -0 -0 -0 -0 -0 -0 -0 -0 -0 -0 0 -0 0 0 0 0 0 0 0 0 0 0 0 0
0 0 0 0 0 0 0 0 0 0 0 0 0 0 0 0 0 -0 -0 0 -0 -0 -0 -0 -0 -0 -0 -0 -0 -0 0 0 0 0 0 0 0 0 0 0 0 0 0 0
Wind_Speed_500mb
15 17 11 6 10 17 8 13 11 20 20 21 31 36 32 44 62 66 74 84 97 103 94 77 66 58 48 40 49 46 41 41 35 26 21 17 14 11 10 12 13 15 15 15
10 15 9 5 10 15 11 11 11 8 13 17 54 43 49 64 74 77 87 86 90 100 90 80 68 59 49 51 51 45 43 37 30 27 25 20 14 13 15 18 18 17 21 22
11 10 14 9 7 8 9 11 9 8 20 14 12 30 51 67 85 76 75 84 96 97 88 80 70 63 56 57 50 47 46 42 34 29 25 21 19 20 19 18 17 19 23 26
9 10 4 17 9 14 14 10 11 13 17 26 39 79 88 81 78 81 86 94 104 96 88 77 69 61 56 57 51 51 48 41 31 25 24 24 23 21 20 20 21 24 26 27
3 1 12 12 9 5 1 7 24 25 26 16 45 34 24 57 78 105 112 102 98 95 86 77 70 61 57 56 53 49 42 35 25 24 25 29 28 23 21 23 21 21 22 20
5 2 10 7 31 49 8 8 39 41 29 10 36 10 12 70 76 82 78 89 88 86 80 79 70 61 58 58 53 46 40 30 23 25 27 29 28 26 25 20 15 12 14 16
12 8 7 24 39 37 15 12 52 54 48 16 12 5 39 60 47 61 60 63 61 59 57 62 60 56 57 57 52 44 35 27 25 25 28 28 24 22 23 20 17 15 14 9
6 7 10 44 18 13 9 31 38 46 42 31 59 11 46 74 71 73 75 75 55 18 46 49 52 56 56 55 48 43 32 27 29 27 28 25 23 28 29 23 17 12 8 14
5 8 6 15 6 3 19 25 47 46 20 7 10 43 77 82 79 86 79 56 72 78 82 65 62 54 54 51 47 40 30 29 30 29 27 22 24 29 30 20 12 9 9 9
6 4 9 13 28 18 26 37 42 32 27 20 31 55 67 77 69 65 59 63 76 86 84 82 75 60 46 44 43 36 33 33 36 36 36 30 34 26 22 16 11 12 16 14
11 16 15 13 37 40 47 35 37 29 22 21 35 54 59 74 81 61 69 80 83 98 85 84 79 61 47 44 38 38 34 37 41 41 30 34 37 26 19 13 13 7 7 7
10 8 7 18 36 41 37 60 51 35 18 13 39 29 47 55 64 55 76 85 92 89 82 82 69 59 51 42 40 40 42 45 44 39 35 41 33 27 21 21 17 13 12 7
12 16 19 35 47 34 27 39 46 35 11 32 9 18 47 49 49 62 71 86 87 80 81 72 58 51 47 43 40 42 39 38 39 38 38 41 36 30 19 16 20 24 28 26
37 33 37 44 44 43 28 30 36 9 8 8 12 23 45 37 37 62 83 80 84 84 73 60 54 48 42 40 41 39 35 45 42 35 32 31 31 31 30 23 24 26 28 33
66 63 64 62 62 55 53 47 55 55 31 16 27 39 56 60 66 75 74 74 74 67 60 55 49 45 43 42 45 43 45 42 33 26 28 23 25 24 21 23 31 32 32 26
37 47 62 62 70 77 70 60 62 56 24 12 40 38 48 44 53 77 81 68 68 67 55 47 47 45 46 49 49 48 46 38 31 28 28 24 23 25 25 26 29 28 22 22
58 61 53 48 55 57 50 52 12 18 36 28 38 61 48 51 80 90 76 78 64 47 42 44 47 46 41 43 48 47 45 39 38 34 30 23 26 28 22 16 17 19 14 10
63 80 82 73 72 67 57 42 16 17 36 40 67 64 47 82 106 94 85 76 63 49 40 42 40 37 39 40 44 51 41 39 38 35 27 27 35 30 26 16 20 17 15 12
54 64 75 81 67 63 60 22 16 19 29 68 64 77 90 96 93 90 85 68 54 49 49 41 40 38 41 42 54 50 43 30 29 28 24 26 30 29 31 31 29 24 23 25
54 57 64 69 64 50 30 19 23 37 61 73 70 86 78 75 76 73 67 56 43 44 42 40 44 36 41 51 63 51 34 19 7 14 19 26 35 25 21 24 27 30 25 20
54 39 56 57 56 42 35 24 29 40 47 59 53 58 77 75 69 62 57 52 48 37 36 38 37 40 48 58 55 45 31 17 9 3 7 8 14 17 15 17 24 26 26 24
53 45 41 57 37 36 32 27 28 46 58 56 53 61 66 69 59 48 39 34 36 30 32 34 34 41 47 51 47 38 29 12 9 3 3 3 9 14 16 23 29 27 23 25
44 56 33 41 39 36 27 25 41 54 63 59 60 62 58 52 47 45 41 32 31 30 27 33 39 37 35 35 40 34 13 2 6 12 12 11 13 13 21 29 28 25 27 28
44 48 42 48 49 40 34 35 34 40 41 45 45 45 42 40 33 28 21 24 26 27 32 46 42 33 28 27 30 21 10 5 4 7 7 14 18 19 26 31 30 25 26 24
37 9 52 63 54 53 47 45 40 36 39 44 39 31 27 31 31 36 28 27 30 35 44 37 34 29 24 21 24 20 19 19 17 17 23 27 25 18 33 37 31 26 28 32
17 24 51 54 51 63 64 59 61 57 52 48 42 39 39 37 35 29 26 27 40 45 41 34 31 26 23 24 22 18 21 29 28 27 30 32 29 26 30 33 32 27 31 34
9 42 52 66 65 63 63 59 59 55 49 51 52 50 46 37 29 30 31 26 40 33 27 27 21 19 19 20 19 15 14 20 23 33 37 33 30 33 31 35 35 33 33 26
Wind_Direction_500mb
216 205 203 174 293 314 213 222 169 239 192 201 201 213 175 181 166 165 168 174 182 183 184 182 185 185 187 196 185 190 201 200 204 216 229 242 243 214 172 154 133 107 94 93
301 308 51 336 315 300 264 264 249 176 229 208 210 161 170 173 171 177 175 176 177 182 183 183 183 182 184 180 182 197 199 196 204 220 235 242 221 186 162 148 138 119 95 90
279 310 6 336 224 256 271 264 226 286 235 154 159 186 187 181 181 180 174 176 179 185 185 183 183 185 182 181 189 197 200 203 213 220 222 209 197 175 163 148 137 126 104 93
283 31 289 250 224 222 220 282 18 315 296 187 191 203 203 191 177 176 176 185 186 186 183 181 181 182 181 185 193 197 201 211 213 214 204 193 184 174 159 142 121 110 116 104
255 186 278 318 21 318 149 16 22 359 334 241 203 196 199 191 186 189 193 189 189 183 181 181 180 181 182 189 196 199 209 211 213 208 201 190 177 171 158 147 138 124 129 104
354 249 260 300 324 317 226 52 353 350 345 280 140 152 225 193 186 190 182 183 181 179 179 180 177 182 186 193 201 207 208 210 207 201 200 188 178 169 166 156 147 135 136 147
229 235 280 339 321 315 63 311 331 344 332 295 243 303 227 180 160 158 163 154 162 169 183 181 179 186 190 199 207 208 203 207 197 192 192 184 175 177 173 168 167 156 146 173
85 188 300 348 353 68 274 335 344 339 342 302 251 246 143 148 150 153 158 156 153 188 221 199 198 193 195 203 204 204 198 202 192 185 187 181 180 170 172 173 171 173 226 252
202 195 213 306 165 250 38 1 7 4 4 334 105 166 151 156 159 158 161 172 186 188 195 198 197 196 197 195 197 196 195 198 196 190 175 172 176 174 177 185 183 193 224 240
355 194 258 281 1 323 353 7 2 39 48 102 129 151 143 141 142 158 169 182 189 193 187 187 192 194 203 198 197 197 194 196 194 190 177 165 170 181 185 201 203 219 235 227
249 262 300 279 322 333 334 325 322 5 46 98 145 147 146 153 163 181 194 193 195 193 188 189 187 189 197 198 199 197 198 192 189 186 182 173 173 186 189 181 172 122 92 140
242 208 188 286 329 308 305 305 312 309 27 195 201 199 183 184 186 199 194 191 191 190 187 187 186 186 189 196 202 202 192 184 184 189 177 167 175 190 192 183 191 211 237 222
271 301 277 298 303 309 331 292 287 309 324 124 46 238 218 209 204 189 185 187 193 190 188 184 183 187 188 194 200 202 189 174 171 170 166 172 190 201 206 218 235 245 255 262
291 265 271 286 284 305 317 278 266 9 253 296 298 218 223 212 221 211 203 190 185 186 185 184 183 186 191 199 201 191 179 166 164 171 177 193 215 231 241 258 258 273 281 292
264 256 262 277 283 285 294 298 287 268 287 335 11 200 192 191 200 196 186 184 183 181 182 180 184 188 197 199 187 175 171 175 183 200 207 224 218 233 245 261 273 280 287 293
305 273 262 269 280 278 285 297 275 270 240 225 320 234 196 188 192 198 190 185 183 178 177 184 190 193 191 187 179 176 182 184 206 202 212 219 219 244 262 267 277 278 272 305
287 284 283 277 273 287 292 325 309 234 213 256 227 210 206 186 214 200 192 186 187 184 185 187 187 186 182 187 187 181 188 191 199 208 213 208 230 241 265 270 264 268 280 285
284 283 281 281 284 293 291 299 305 216 194 182 157 195 222 201 192 185 183 178 175 174 180 185 184 185 187 182 192 179 191 190 206 220 235 243 227 237 261 282 305 284 296 284
299 294 280 277 278 282 295 225 243 225 197 187 194 198 199 196 190 179 170 175 172 179 178 183 185 185 183 172 183 183 183 199 220 231 239 236 230 248 275 270 266 265 266 272
294 281 275 274 270 277 247 243 220 193 173 181 182 182 185 184 180 173 171 171 180 181 178 181 186 190 180 174 175 178 188 209 227 282 262 246 252 252 254 254 262 273 263 261
328 299 269 270 261 273 229 221 213 194 190 186 186 177 180 174 171 166 170 170 173 179 183 191 187 174 180 179 178 186 199 199 224 123 142 176 216 242 270 266 243 243 254 272
328 328 295 256 255 222 209 206 210 196 184 180 175 171 165 162 163 168 173 175 176 178 180 178 178 179 182 187 187 189 188 194 165 152 223 272 261 281 286 281 264 260 275 297
320 320 283 215 213 209 192 201 177 177 175 171 169 165 162 159 165 174 176 168 168 156 163 172 164 170 177 179 189 185 191 164 247 204 243 273 283 287 292 273 266 277 290 296
296 317 210 194 194 196 196 187 177 171 167 167 163 160 161 159 160 155 143 139 155 162 167 161 162 168 163 157 163 170 186 231 289 231 248 279 274 304 326 297 273 276 290 293
298 305 173 179 177 175 175 167 162 158 156 156 160 160 160 162 156 145 143 144 166 167 164 163 168 174 173 186 196 214 229 237 237 274 267 270 278 313 331 308 279 298 308 307
321 187 167 180 181 163 154 152 150 151 151 151 152 155 154 156 148 143 153 156 162 158 164 178 180 178 183 200 210 224 248 252 258 270 269 262 259 278 305 279 282 297 304 313
274 161 160 151 153 154 154 152 148 152 156 153 148 148 150 151 154 162 171 168 173 168 175 180 184 191 197 208 224 238 249 252 266 289 271 257 261 302 294 291 290 299 305 311
Wind_Speed_850mb
15 17 11 6 10 17 8 13 11 20 20 21 31 36 32 44 62 66 74 84 97 103 94 77 66 58 48 40 49 46 41 41 35 26 21 17 14 11 10 12 13 15 15 15
10 15 9 5 10 15 11 11 11 8 13 17 54 43 49 64 74 77 87 86 90 100 90 80 68 59 49 51 51 45 43 37 30 27 25 20 14 13 15 18 18 17 21 22
11 10 14 9 7 8 9 11 9 8 20 14 12 30 51 67 85 76 75 84 96 97 88 80 70 63 56 57 50 47 46 42 34 29 25 21 19 20 19 18 17 19 23 26
9 10 4 17 9 14 14 10 11 13 17 26 39 79 88 81 78 81 86 94 104 96 88 77 69 61 56 57 51 51 48 41 31 25 24 24 23 21 20 20 21 24 26 27
3 1 12 12 9 5 1 7 24 25 26 16 45 34 24 57 78 105 112 102 98 95 86 77 70 61 57 56 53 49 42 35 25 24 25 29 28 23 21 23 21 21 22 20
5 2 10 7 31 49 8 8 39 41 29 10 36 10 12 70 76 82 78 89 88 86 80 79 70 61 58 58 53 46 40 30 23 25 27 29 28 26 25 20 15 12 14 16
12 8 7 24 39 37 15 12 52 54 48 16 12 5 39 60 47 61 60 63 61 59 57 62 60 56 57 57 52 44 35 27 25 25 28 28 24 22 23 20 17 15 14 9
6 7 10 44 18 13 9 31 38 46 42 31 59 11 46 74 71 73 75 75 55 18 46 49 52 56 56 55 48 43 32 27 29 27 28 25 23 28 29 23 17 12 8 14
5 8 6 15 6 3 19 25 47 46 20 7 10 43 77 82 79 86 79 56 72 78 82 65 62 54 54 51 47 40 30 29 30 29 27 22 24 29 30 20 12 9 9 9
6 4 9 13 28 18 26 37 42 32 27 20 31 55 67 77 69 65 59 63 76 86 84 82 75 60 46 44 43 36 33 33 36 36 36 30 34 26 22 16 11 12 16 14
11 16 15 13 37 40 47 35 37 29 22 21 35 54 59 74 81 61 69 80 83 98 85 84 79 61 47 44 38 38 34 37 41 41 30 34 37 26 19 13 13 7 7 7
10 8 7 18 36 41 37 60 51 35 18 13 39 29 47 55 64 55 76 85 92 89 82 82 69 59 51 42 40 40 42 45 44 39 35 41 33 27 21 21 17 13 12 7
12 16 19 35 47 34 27 39 46 35 11 32 9 18 47 49 49 62 71 86 87 80 81 72 58 51 47 43 40 42 39 38 39 38 38 41 36 30 19 16 20 24 28 26
37 33 37 44 44 43 28 30 36 9 8 8 12 23 45 37 37 62 83 80 84 84 73 60 54 48 42 40 41 39 35 45 42 35 32 31 31 31 30 23 24 26 28 33
66 63 64 62 62 55 53 47 55 55 31 16 27 39 56 60 66 75 74 74 74 67 60 55 49 45 43 42 45 43 45 42 33 26 28 23 25 24 21 23 31 32 32 26
37 47 62 62 70 77 70 60 62 56 24 12 40 38 48 44 53 77 81 68 68 67 55 47 47 45 46 49 49 48 46 38 31 28 28 24 23 25 25 26 29 28 22 22
58 61 53 48 55 57 50 52 12 18 36 28 38 61 48 51 80 90 76 78 64 47 42 44 47 46 41 43 48 47 45 39 38 34 30 23 26 28 22 16 17 19 14 10
63 80 82 73 72 67 57 42 16 17 36 40 67 64 47 82 106 94 85 76 63 49 40 42 40 37 39 40 44 51 41 39 38 35 27 27 35 30 26 16 20 17 15 12
54 64 75 81 67 63 60 22 16 19 29 68 64 77 90 96 93 90 85 68 54 49 49 41 40 38 41 42 54 50 43 30 29 28 24 26 30 29 31 31 29 24 23 25
54 57 64 69 64 50 30 19 23 37 61 73 70 86 78 75 76 73 67 56 43 44 42 40 44 36 41 51 63 51 34 19 7 14 19 26 35 25 21 24 27 30 25 20
54 39 56 57 56 42 35 24 29 40 47 59 53 58 77 75 69 62 57 52 48 37 36 38 37 40 48 58 55 45 31 17 9 3 7 8 14 17 15 17 24 26 26 24
53 45 41 57 37 36 32 27 28 46 58 56 53 61 66 69 59 48 39 34 36 30 32 34 34 41 47 51 47 38 29 12 9 3 3 3 9 14 16 23 29 27 23 25
44 56 33 41 39 36 27 25 41 54 63 59 60 62 58 52 47 45 41 32 31 30 27 33 39 37 35 35 40 34 13 2 6 12 12 11 13 13 21 29 28 25 27 28
44 48 42 48 49 40 34 35 34 40 41 45 45 45 42 40 33 28 21 24 26 27 32 46 42 33 28 27 30 21 10 5 4 7 7 14 18 19 26 31 30 25 26 24
37 9 52 63 54 53 47 45 40 36 39 44 39 31 27 31 31 36 28 27 30 35 44 37 34 29 24 21 24 20 19 19 17 17 23 27 25 18 33 37 31 26 28 32
17 24 51 54 51 63 64 59 61 57 52 48 42 39 39 37 35 29 26 27 40 45 41 34 31 26 23 24 22 18 21 29 28 27 30 32 29 26 30 33 32 27 31 34
9 42 52 66 65 63 63 59 59 55 49 51 52 50 46 37 29 30 31 26 40 33 27 27 21 19 19 20 19 15 14 20 23 33 37 33 30 33 31 35 35 33 33 26
Wind_Direction_850mb
216 205 203 174 293 314 213 222 169 239 192 201 201 213 175 181 166 165 168 174 182 183 184 182 185 185 187 196 185 190 201 200 204 216 229 242 243 214 172 154 133 107 94 93
301 308 51 336 315 300 264 264 249 176 229 208 210 161 170 173 171 177 175 176 177 182 183 183 183 182 184 180 182 197 199 196 204 220 235 242 221 186 162 148 138 119 95 90
279 310 6 336 224 256 271 264 226 286 235 154 159 186 187 181 181 180 174 176 179 185 185 183 183 185 182 181 189 197 200 203 213 220 222 209 197 175 163 148 137 126 104 93
283 31 289 250 224 222 220 282 18 315 296 187 191 203 203 191 177 176 176 185 186 186 183 181 181 182 181 185 193 197 201 211 213 214 204 193 184 174 159 142 121 110 116 104
255 186 278 318 21 318 149 16 22 359 334 241 203 196 199 191 186 189 193 189 189 183 181 181 180 181 182 189 196 199 209 211 213 208 201 190 177 171 158 147 138 124 129 104
354 249 260 300 324 317 226 52 353 350 345 280 140 152 225 193 186 190 182 183 181 179 179 180 177 182 186 193 201 207 208 210 207 201 200 188 178 169 166 156 147 135 136 147
229 235 280 339 321 315 63 311 331 344 332 295 243 303 227 180 160 158 163 154 162 169 183 181 179 186 190 199 207 208 203 207 197 192 192 184 175 177 173 168 167 156 146 173
85 188 300 348 353 68 274 335 344 339 342 302 251 246 143 148 150 153 158 156 153 188 221 199 198 193 195 203 204 204 198 202 192 185 187 181 180 170 172 173 171 173 226 252
202 195 213 306 165 250 38 1 7 4 4 334 105 166 151 156 159 158 161 172 186 188 195 198 197 196 197 195 197 196 195 198 196 190 175 172 176 174 177 185 183 193 224 240
355 194 258 281 1 323 353 7 2 39 48 102 129 151 143 141 142 158 169 182 189 193 187 187 192 194 203 198 197 197 194 196 194 190 177 165 170 181 185 201 203 219 235 227
249 262 300 279 322 333 334 325 322 5 46 98 145 147 146 153 163 181 194 193 195 193 188 189 187 189 197 198 199 197 198 192 189 186 182 173 173 186 189 181 172 122 92 140
242 208 188 286 329 308 305 305 312 309 27 195 201 199 183 184 186 199 194 191 191 190 187 187 186 186 189 196 202 202 192 184 184 189 177 167 175 190 192 183 191 211 237 222
271 301 277 298 303 309 331 292 287 309 324 124 46 238 218 209 204 189 185 187 193 190 188 184 183 187 188 194 200 202 189 174 171 170 166 172 190 201 206 218 235 245 255 262
291 265 271 286 284 305 317 278 266 9 253 296 298 218 223 212 221 211 203 190 185 186 185 184 183 186 191 199 201 191 179 166 164 171 177 193 215 231 241 258 258 273 281 292
264 256 262 277 283 285 294 298 287 268 287 335 11 200 192 191 200 196 186 184 183 181 182 180 184 188 197 199 187 175 171 175 183 200 207 224 218 233 245 261 273 280 287 293
305 273 262 269 280 278 285 297 275 270 240 225 320 234 196 188 192 198 190 185 183 178 177 184 190 193 191 187 179 176 182 184 206 202 212 219 219 244 262 267 277 278 272 305
287 284 283 277 273 287 292 325 309 234 213 256 227 210 206 186 214 200 192 186 187 184 185 187 187 186 182 187 187 181 188 191 199 208 213 208 230 241 265 270 264 268 280 285
284 283 281 281 284 293 291 299 305 216 194 182 157 195 222 201 192 185 183 178 175 174 180 185 184 185 187 182 192 179 191 190 206 220 235 243 227 237 261 282 305 284 296 284
299 294 280 277 278 282 295 225 243 225 197 187 194 198 199 196 190 179 170 175 172 179 178 183 185 185 183 172 183 183 183 199 220 231 239 236 230 248 275 270 266 265 266 272
294 281 275 274 270 277 247 243 220 193 173 181 182 182 185 184 180 173 171 171 180 181 178 181 186 190 180 174 175 178 188 209 227 282 262 246 252 252 254 254 262 273 263 261
328 299 269 270 261 273 229 221 213 194 190 186 186 177 180 174 171 166 170 170 173 179 183 191 187 174 180 179 178 186 199 199 224 123 142 176 216 242 270 266 243 243 254 272
328 328 295 256 255 222 209 206 210 196 184 180 175 171 165 162 163 168 173 175 176 178 180 178 178 179 182 187 187 189 188 194 165 152 223 272 261 281 286 281 264 260 275 297
320 320 283 215 213 209 192 201 177 177 175 171 169 165 162 159 165 174 176 168 168 156 163 172 164 170 177 179 189 185 191 164 247 204 243 273 283 287 292 273 266 277 290 296
296 317 210 194 194 196 196 187 177 171 167 167 163 160 161 159 160 155 143 139 155 162 167 161 162 168 163 157 163 170 186 231 289 231 248 279 274 304 326 297 273 276 290 293
298 305 173 179 177 175 175 167 162 158 156 156 160 160 160 162 156 145 143 144 166 167 164 163 168 174 173 186 196 214 229 237 237 274 267 270 278 313 331 308 279 298 308 307
321 187 167 180 181 163 154 152 150 151 151 151 152 155 154 156 148 143 153 156 162 158 164 178 180 178 183 200 210 224 248 252 258 270 269 262 259 278 305 279 282 297 304 313
274 161 160 151 153 154 154 152 148 152 156 153 148 148 150 151 154 162 171 168 173 168 175 180 184 191 197 208 224 238 249 252 266 289 271 257 261 302 294 291 290 299 305 311